Dewpoint
59 48 42 36 29 25 23 25 26 25 25 27 28 33 39 41 48 45 65 66 72 74 76 76 77 77 76 76 76 75 75 75 75 75 75 75 75 75 75 76 76 75 74 74 73 72 72 71 72
51 39 35 30 25 24 20 24 24 26 27 27 25 26 47 49 58 61 65 71 72 75 75 76 77 77 76 76 75 75 75 75 74 74 74 74 75 75 75 76 76 75 74 73 73 72 71 71 71
49 35 30 31 26 19 12 23 24 25 26 27 23 30 47 54 61 60 65 71 74 75 75 75 77 77 76 76 75 75 75 74 74 74 74 75 75 75 75 76 75 74 73 73 73 72 71 72 72
37 26 24 26 27 24 19 24 23 22 22 24 24 21 34 62 60 60 70 73 74 74 75 75 76 76 76 76 75 75 75 75 74 74 74 75 75 75 75 75 75 74 73 73 72 72 72 72 72
30 23 16 22 23 25 22 22 23 21 24 24 20 20 24 60 67 68 71 72 73 74 75 75 77 76 76 76 75 75 75 75 75 74 74 74 75 75 75 75 75 74 73 73 72 72 72 71 71
29 24 17 7 13 18 21 22 20 19 20 19 18 21 49 66 68 69 70 71 73 74 74 75 76 76 76 75 75 75 74 75 75 74 74 74 75 75 75 75 75 74 73 73 72 72 71 71 71
26 23 17 16 11 10 10 17 17 18 18 18 18 33 56 65 68 70 69 70 72 74 73 74 75 75 76 75 75 75 74 75 75 75 74 74 75 75 75 74 74 74 74 73 72 71 71 71 71
30 24 25 17 9 7 10 14 12 15 15 16 19 21 40 65 69 68 69 71 73 73 72 72 73 73 74 74 75 75 75 75 75 75 75 74 75 75 74 73 73 74 73 73 72 71 71 71 71
33 27 24 19 15 8 12 7 11 11 6 17 16 22 33 68 68 69 70 71 71 72 71 72 72 72 73 74 73 74 74 74 75 75 75 74 73 74 73 73 73 73 73 73 72 72 72 71 71
31 29 26 22 19 13 12 17 18 19 20 20 19 20 64 67 67 68 68 68 69 69 70 70 70 71 72 71 73 73 72 73 73 73 73 72 72 72 73 73 74 74 73 73 73 72 72 70 69
30 28 28 27 25 24 23 24 21 20 19 19 18 21 66 67 67 67 68 68 68 68 70 71 71 72 71 70 72 72 72 72 72 72 71 71 71 71 72 71 72 72 73 71 71 70 70 69 68
22 28 28 28 27 27 28 28 26 24 24 22 21 23 41 66 66 67 67 68 68 68 69 71 71 70 70 71 70 71 70 70 71 71 70 69 69 69 70 70 69 71 71 70 70 70 69 68 68
22 21 20 26 27 27 30 29 28 28 28 28 28 27 26 38 66 67 68 68 68 68 69 71 70 70 70 70 70 70 70 70 71 71 70 69 68 68 68 69 69 70 71 71 70 68 68 68 66
29 26 24 21 20 23 23 23 25 25 25 28 28 25 25 23 61 67 67 68 68 68 69 70 70 71 71 70 70 70 70 71 71 71 70 69 67 67 68 67 68 69 70 70 70 69 68 68 67
28 27 26 26 24 22 23 21 21 22 22 21 20 23 24 22 66 67 67 68 68 68 69 69 70 70 71 71 70 70 71 70 70 70 70 69 68 67 68 68 67 68 69 70 69 68 68 66 64
30 31 29 27 25 24 23 17 20 22 23 22 22 23 25 24 64 66 68 68 68 69 69 69 70 70 70 70 70 70 70 70 69 69 70 69 68 67 68 69 68 70 70 69 67 66 64 63 62
30 28 29 29 28 22 22 20 23 24 24 24 24 25 24 22 37 60 68 67 67 68 69 68 68 68 68 68 68 68 68 69 68 68 68 69 67 68 69 70 69 68 67 67 66 63 63 61 60
28 28 27 30 28 26 23 21 22 24 25 24 25 25 26 22 30 49 67 67 67 68 68 67 67 67 66 67 67 67 67 68 68 67 68 69 69 69 69 68 67 66 66 64 63 61 60 60 59
27 27 24 24 25 25 27 27 27 26 23 21 22 24 25 25 26 60 66 66 66 67 66 66 66 66 67 66 66 66 66 67 68 69 69 69 70 69 68 66 65 65 64 63 62 61 60 59 59
21 20 19 20 22 23 21 19 21 25 26 24 24 24 24 26 42 65 65 65 66 66 66 65 66 67 67 67 66 67 68 68 70 70 69 70 69 68 67 66 64 64 62 61 61 61 59 58 58
20 19 19 19 20 21 19 20 23 25 28 29 25 25 25 25 45 64 66 65 66 65 65 65 66 66 67 68 69 69 70 69 70 70 69 69 69 68 66 65 64 62 62 60 60 60 58 57 61
19 21 21 23 23 18 24 19 21 25 25 25 25 23 24 25 49 63 65 66 66 66 65 65 66 66 67 70 68 68 67 67 69 69 68 68 67 66 66 65 63 62 60 60 61 62 61 60 59
16 26 24 23 26 25 25 21 19 22 22 23 24 24 24 26 52 62 64 65 66 66 66 65 65 65 67 70 69 68 67 68 69 68 66 66 66 66 64 63 62 61 61 60 62 61 60 59 57
17 20 28 27 27 21 23 22 18 18 21 24 23 27 26 24 41 59 63 64 65 66 65 65 64 65 67 69 69 68 68 68 66 65 65 65 64 63 63 62 61 61 61 61 60 59 57 56 55
30 26 17 22 22 19 23 22 21 21 22 23 24 27 25 26 28 54 60 63 64 65 64 64 64 64 66 68 68 67 68 68 65 65 64 63 62 62 62 61 61 60 59 59 58 57 56 55 55
29 26 19 13 18 17 22 21 21 24 24 23 23 25 25 26 26 48 56 62 64 64 64 64 64 62 64 67 67 68 68 67 66 65 64 63 62 62 61 59 58 57 57 57 57 56 56 55 54
31 27 27 23 26 21 23 24 23 20 20 22 25 25 24 27 27 28 56 59 62 64 64 64 64 63 63 66 68 67 66 64 64 63 63 62 62 60 58 57 56 55 54 54 53 51 52 52 51
31 36 29 31 19 17 22 24 18 20 20 20 20 25 33 36 33 29 50 58 61 62 63 64 64 64 63 67 67 65 63 63 63 63 62 61 58 57 55 53 52 50 50 49 48 47 48 48 46
33 33 35 32 25 15 19 23 26 23 23 22 22 23 32 35 38 35 36 59 59 61 61 62 64 66 64 66 64 63 63 63 63 61 59 56 55 52 50 49 48 47 46 46 46 46 45 45 45
32 33 34 30 26 26 23 20 26 30 30 27 31 35 36 38 40 38 35 59 59 59 60 62 65 66 65 64 63 62 62 61 59 56 55 53 49 48 47 46 44 44 43 43 44 43 44 45 46
Lifted_Index
8 10 11 10 7 5 3 2 2 2 2 3 4 4 2 1 0 0 -1 -2 -4 -5 -6 -6 -6 -5 -4 -3 -3 -2 -2 -2 -2 -2 -2 -2 -2 -3 -3 -3 -3 -3 -2 -2 -1 -1 -0 -0 -1
10 11 11 9 6 4 3 2 2 2 3 3 3 3 2 0 -0 0 -1 -2 -4 -5 -5 -6 -6 -5 -5 -4 -3 -2 -2 -2 -2 -2 -2 -2 -2 -3 -3 -3 -3 -3 -2 -2 -1 -1 -0 -0 -1
11 11 10 7 5 3 2 2 2 3 3 3 3 3 2 -0 -1 -0 -1 -2 -3 -4 -5 -5 -6 -5 -4 -4 -3 -2 -2 -2 -2 -2 -2 -2 -2 -3 -3 -3 -3 -2 -2 -1 -1 -1 -1 -1 -1
12 11 9 6 4 3 3 3 3 3 4 4 4 4 2 -0 -1 -1 -1 -2 -3 -4 -5 -5 -5 -5 -4 -4 -3 -3 -3 -2 -2 -2 -2 -2 -3 -3 -3 -3 -3 -2 -2 -2 -1 -1 -1 -1 -1
12 11 7 5 4 4 4 4 4 4 4 5 4 4 2 -1 -2 -2 -3 -3 -3 -4 -5 -5 -5 -5 -4 -4 -3 -3 -3 -3 -3 -2 -2 -3 -3 -3 -3 -3 -3 -3 -2 -2 -2 -1 -1 -1 -1
11 9 6 4 3 3 4 5 5 5 5 5 5 4 1 -2 -3 -3 -3 -3 -3 -4 -5 -5 -5 -5 -4 -4 -3 -3 -3 -3 -3 -3 -3 -3 -3 -3 -4 -4 -3 -3 -3 -2 -2 -2 -1 -1 -1
10 8 6 4 3 3 4 5 5 5 6 6 6 5 1 -2 -3 -3 -3 -3 -3 -4 -4 -5 -5 -5 -4 -4 -4 -3 -3 -3 -4 -4 -4 -3 -3 -3 -4 -4 -3 -3 -3 -2 -2 -2 -1 -1 -1
10 9 6 4 4 4 5 6 6 7 7 8 7 6 3 -1 -3 -3 -2 -3 -3 -4 -4 -4 -4 -4 -4 -4 -4 -3 -3 -4 -4 -4 -4 -4 -4 -4 -4 -4 -3 -3 -3 -3 -2 -2 -2 -2 -2
10 9 6 5 5 5 6 7 8 8 8 8 8 7 3 -1 -3 -2 -2 -2 -3 -3 -3 -4 -3 -3 -3 -3 -3 -3 -3 -3 -4 -4 -4 -4 -4 -4 -4 -4 -4 -3 -3 -3 -3 -3 -2 -2 -2
10 9 8 7 7 7 7 8 9 9 8 9 9 6 2 -2 -2 -2 -2 -2 -2 -2 -3 -3 -3 -3 -3 -3 -3 -3 -3 -3 -3 -3 -4 -3 -3 -4 -4 -4 -4 -3 -3 -3 -3 -3 -2 -1 -1
9 9 9 9 9 8 8 9 9 9 9 9 9 7 2 -2 -3 -2 -2 -2 -2 -2 -2 -3 -3 -3 -3 -2 -2 -2 -2 -2 -2 -3 -3 -3 -3 -3 -4 -4 -3 -3 -3 -3 -2 -2 -1 -1 -0
8 8 9 9 9 9 9 9 9 9 9 10 10 8 5 1 -2 -3 -2 -2 -2 -2 -2 -2 -3 -3 -2 -2 -2 -1 -1 -1 -2 -2 -2 -2 -2 -3 -3 -3 -2 -2 -3 -2 -2 -1 -1 -0 -0
8 9 9 9 9 9 9 9 9 9 10 10 10 9 8 5 -0 -2 -2 -2 -2 -2 -1 -2 -2 -2 -2 -2 -1 -1 -1 -1 -2 -2 -2 -2 -1 -2 -2 -2 -1 -2 -2 -2 -2 -1 -1 -1 -1
10 10 10 10 10 9 8 8 8 9 10 10 10 9 9 6 1 -3 -3 -3 -2 -2 -1 -2 -2 -2 -2 -2 -2 -2 -2 -2 -2 -3 -2 -2 -1 -1 -1 -1 -1 -1 -2 -2 -2 -2 -1 -1 -1
10 10 10 10 10 9 8 6 6 8 9 9 9 8 8 6 0 -4 -4 -4 -3 -2 -2 -2 -2 -3 -2 -2 -2 -2 -2 -2 -2 -3 -2 -2 -1 -0 -1 -1 -1 -2 -2 -2 -2 -2 -2 -2 -2
9 8 7 8 9 9 8 5 5 7 8 8 7 8 8 5 -0 -4 -5 -5 -4 -3 -2 -2 -2 -2 -2 -2 -2 -2 -2 -2 -2 -2 -2 -2 -1 -1 -1 -2 -2 -2 -2 -2 -3 -2 -2 -2 -1
7 6 6 7 8 8 7 6 6 7 7 7 6 7 7 6 2 -3 -5 -5 -5 -4 -3 -3 -2 -2 -2 -2 -2 -1 -1 -1 -1 -1 -1 -1 -1 -1 -2 -3 -3 -4 -3 -3 -3 -2 -2 -1 -1
5 5 6 6 7 7 7 6 7 8 7 6 6 6 6 7 4 -0 -4 -6 -5 -5 -4 -4 -3 -2 -2 -1 -1 -1 -1 -1 -1 -1 -1 -1 -2 -2 -3 -4 -4 -4 -4 -3 -3 -2 -1 -1 -1
4 5 6 6 6 6 7 7 8 8 8 7 6 6 6 7 5 1 -3 -5 -6 -6 -5 -5 -4 -3 -2 -1 -1 -1 -1 -1 -1 -1 -2 -2 -3 -4 -4 -4 -4 -4 -4 -3 -2 -1 -1 0 0
3 4 5 6 6 6 6 6 7 8 8 7 7 6 6 6 5 0 -3 -4 -5 -6 -6 -6 -5 -3 -2 -1 -1 -1 -2 -2 -2 -3 -3 -4 -4 -4 -4 -4 -5 -4 -4 -2 -1 -0 0 1 2
3 3 4 5 6 6 6 5 6 7 7 8 7 6 6 6 4 -0 -3 -4 -5 -6 -6 -6 -5 -4 -3 -2 -2 -2 -2 -2 -3 -3 -4 -4 -4 -4 -4 -5 -5 -4 -3 -2 -1 1 2 3 4
3 3 3 4 5 5 5 4 5 6 7 7 7 6 6 6 4 -0 -3 -4 -5 -5 -6 -6 -5 -4 -4 -3 -3 -3 -3 -3 -4 -4 -4 -4 -4 -4 -4 -4 -4 -3 -2 -1 1 2 3 4 5
3 2 2 3 4 5 5 4 4 5 5 6 6 7 6 6 4 -0 -3 -4 -4 -5 -5 -5 -5 -4 -4 -3 -3 -3 -3 -4 -4 -4 -4 -4 -4 -4 -4 -4 -3 -2 -1 1 2 3 4 4 5
2 2 2 2 3 4 5 5 4 5 5 6 6 7 7 6 4 1 -2 -3 -4 -4 -4 -5 -5 -4 -4 -3 -4 -4 -4 -4 -4 -4 -3 -3 -3 -3 -4 -3 -2 -1 1 2 3 3 3 3 4
1 1 1 1 1 2 4 5 5 6 7 7 7 7 7 6 5 3 -0 -2 -3 -3 -4 -4 -4 -4 -4 -3 -4 -4 -4 -4 -4 -3 -3 -2 -3 -3 -3 -2 -0 1 2 2 3 3 3 3 3
1 1 1 0 0 2 3 4 5 7 8 8 8 8 7 7 6 4 1 -1 -2 -3 -3 -4 -4 -4 -3 -3 -4 -4 -5 -5 -4 -3 -3 -2 -3 -3 -2 -1 1 2 2 2 3 3 4 4 5
1 1 1 0 0 1 2 3 5 7 8 8 8 8 8 7 7 6 3 0 -1 -3 -3 -4 -4 -4 -3 -3 -4 -4 -5 -4 -4 -3 -2 -2 -2 -3 -2 -1 1 2 2 3 4 4 5 6 7
1 1 1 1 1 1 1 3 4 6 7 7 8 8 8 8 7 6 4 1 -1 -2 -3 -4 -4 -4 -3 -3 -4 -4 -4 -4 -3 -2 -2 -1 -2 -2 -2 -0 1 2 3 4 5 6 7 8 8
1 1 1 1 1 1 1 2 3 5 6 6 7 7 7 8 7 6 4 1 -1 -1 -2 -3 -4 -4 -3 -3 -4 -4 -3 -3 -2 -1 -1 -1 -2 -2 -1 1 2 3 4 5 6 7 9 9 9
2 1 1 1 1 1 1 1 3 4 5 6 7 7 7 7 7 6 4 1 -1 -1 -2 -3 -3 -4 -3 -3 -3 -3 -3 -2 -2 -1 -1 -1 -2 -1 -0 1 2 3 4 5 7 8 9 10 10